STARLINK-32244, 60411

Orbit data source: Space-Track

STARLINK-32244, 60411 is a payload satellite owned by SpaceX/Seattle (US) in LEO that was launched on Sat, 10 Aug 2024 UTC via an FALCON 9 launch vehicle from the Air Force Eastern Test Range (AFETR). Payload-class satellites include a variety of spacecraft equipped with specific instruments for various scientific and technological missions. These include communications satellites like Starlink; space stations such as the ISS; scientific satellites like the Hubble; Earth observation satellites from companies like Planet Labs, Umbra, and HawkEye 360; GPS; miniature CubeSats for education and research; and military/defense satellites.

Loading next visibility...
Identifier
60411, 2024-141P
Orbit
LEO
Last TLE update
14 hours ago
Origin
Manufacturer
SpaceX/Seattle
Mission
Operational Commercial Communications
Bus & Motor
STARLINK V2M, Unknown motor
Mass
730 kg wet, ~700 kg dry
Launch date (UTC)
2024-08-10 (11 months ago)
Launch vehicle
FALCON 9
Launch site
Air Force Eastern Test Range (AFETR)
Object type
Payload
Rocket body
Debris
Shape & HBR
Box + 2 Pan, 29 m
Radar Cross Section
36.964 m², Large (>1 m²)

Expand to show TLE details & history

TLE from 14 hours ago
0 STARLINK-32244
1 60411U 24141P   25186.57749837 -.00000177  00000-0  61569-5 0  9994
2 60411  53.1606 310.6144 0001095  96.6360 263.4765 15.30191450 51748
Epoch: 2025-07-05T13:51Z
TLE epoch observation values (Epoch: 2025-07-05T13:51:35.859Z)
Latitude
-0.00004°
Longitude
178.90142°
Altitude
476.226 km
Speed
7.629 km/s
True Right ascension
20h 42m 27s
True Declination
0° 00' 00"
Sunlit
Object was in full shadow at epoch
Visualization orbit readout
Latitude
-52.52441°
Longitude
72.61608°
Altitude
494.2 km
Speed
7.617 km/s
Apparent Right ascension
07h 23m 53s
Apparent Declination
-76° 21' 45"
Sunlit
Object is in full shadow
Visualization observer readout
Local Sidereal Time
15:29:23
Azimuth
196.803° SSW
Elevation
-45.867°
Doppler factor
1
Orbital elements
Apogee altitude
476.247 km
Perigee altitude
474.746 km
Semi-major axis
6,853.634 km
Eccentricity
0.00011
Inclination
53.1606°
RAAN
310.6144°
Arg. of periapsis
96.636°
True anomaly
Unknown
Mean anomaly
263.4765°
Eccentric anomaly
Unknown
Mean motion
3.82527 °/min
Orbital period
94.11 mins
BSTAR
0.0000061569
Loading maneuver chart data...
Loading SW <> Apogee altitude chart data...
Loading historical data...
Loading historical data...
Loading historical data...
Loading historical data...
Loading historical data...
Loading historical data...
Loading historical data...

STARLINK-32244 Visibility forecast

Observer location: undefined°, undefined°

Span
Click to sort rows by Start time (UTC) header in descending order
Start Az.
Max El. time (UTC)
Max El. Az.
Max El.
End time (UTC)
End Az.
5 mins2025-07-06 10:24:21.954Z196.805° SSW2025-07-06 10:26:21.954Z154.833° SSE31.138°2025-07-06 10:29:21.954Z70.231° E
4 mins2025-07-06 12:03:21.954Z291.535° WNW2025-07-06 12:04:21.954Z316.367° NNW24.705°2025-07-06 12:07:21.954Z25.807° NE
5 mins2025-07-06 16:59:21.954Z331.707° NNW2025-07-06 17:01:21.954Z16.724° NNE30.249°2025-07-06 17:04:21.954Z95.711° ESE
4 mins2025-07-06 18:38:21.954Z261.009° W2025-07-06 18:39:21.954Z234.581° WSW24.203°2025-07-06 18:42:21.954Z172.962° S
|